TURKSAT 6A

Last updated on Sat Aug 15 2026 00:03:03 GMT+0000 (Coordinated Universal Time)

1 60233U 24127A 26226.57628943 .00000131 00000+0 00000+0 0 9995 2 60233 0.0482 242.5904 0003835 299.6809 30.1527 1.00272763 7607
UTC large
Height (km)
Speed (km/s)
/
Latitude / Longitude
Inclination (degrees)
Orbital Period (minutes)
Azimuth
Elevation
Range (km)
Doppler Factor

Next 0 passes for location: London (51.5072 / 0.1276)

No passes found over London.
TURKSAT 6A